Back to catalog

FENGYUN 1C DEB

AliveSSO
NORAD 31776·DEBRIS·🇨🇳 China

Launched May 10, 1999 from Taiyuan Satellite Launch Center

Loading…

Next Passes (next 24 hours)

TLE

FreshSource: Space-Track

Epoch: Sep 12, 2026, 10:30 UTC

1 31776U 99025CGB 26255.43777013  .00001435  00000-0  68859-3 0  9993
2 31776  99.0568 326.4506 0052376 274.1138 148.9748 14.19886524987630

Track FENGYUN 1C DEB in real time with AllMySat

Download on the App Store